Content
SEND FEEDBACK

Daily
Averages
Monthly
Summary
United States of America

LUCAS VALLEY-MARINWOOD, CALIFORNIA


Home > North America > United States > California
Elevation: 13 feet     Latitude: 38 01N     Longitude: 122 31W

WEATHER
 
SELECT A DAY
Number of Records: 164,785;   Date Range: 9/27/07 - 7/27/14
 
SHARE

PRINT THIS DATA

[ ← Previous Day ]
WEATHER ALMANAC - JANUARY 31, 2013
[ Next Day → ]
[ °C ]   °F
Weather ElementAverageHighLow
Temperature46.6 °F64.4 °F (3:55 pm)35.6 °F (3:15 am)
Dewpoint42.3 °F48.2 °F (10:15 am)35.6 °F (3:15 am)
Humidity87.8 %100 % (12:35 am)52 % (3:55 pm)
Barometer30.26 in30.32 in (8:35 am)30.20 in (4:35 pm)
Wind Speed1.5 mph6.9 mph (12:55 pm)
Weather ElementAverage
Visibility7.3 mi
Wind DirectionENE (54.9 °)

Weather ElementTotal
Precipitation---
Heating Degree Days15 (Base 65)
Averaged from 71 records on January 31, 2013
WEATHER CONDITIONS BREAKOUT
WIND DIRECTION BREAKOUT
WEATHER BY HOUR - JANUARY 31, 2013
[ °C ]   °F
Local TimeTemperatureDewpointHumidityBarometerVisibilityWind DirectionWind SpeedGust SpeedPrecipitationEventsConditions
12:35 AM39.2 °F39.2 °F100 %30.30 in10.0 miCalmClear
12:55 AM37.4 °F37.4 °F100 %30.30 in0.2 miCalmFogFog
1:15 AM39.2 °F39.2 °F100 %30.30 in10.0 miCalmClear
1:35 AM39.2 °F39.2 °F100 %30.30 in3.0 miCalmClear
1:55 AM39.2 °F39.2 °F100 %30.30 in1.8 miCalmClear
2:15 AM37.4 °F37.4 °F100 %30.30 in10.0 miCalmClear
2:35 AM37.4 °F37.4 °F100 %30.30 in10.0 miCalmClear
2:55 AM37.4 °F37.4 °F100 %30.29 in8.0 miCalmClear
3:15 AM35.6 °F35.6 °F100 %30.29 in10.0 miWSW (240°)3.5 mphClear
3:35 AM37.4 °F37.4 °F100 %30.29 in10.0 miSouth (190°)4.6 mphClear
3:55 AM35.6 °F35.6 °F100 %30.28 in10.0 miCalmClear
4:15 AM35.6 °F35.6 °F100 %30.28 in0.2 miNorth (350°)5.8 mphFogFog
4:35 AM35.6 °F35.6 °F100 %30.28 in2.0 miCalmClear
4:55 AM35.6 °F35.6 °F100 %30.29 in1.5 miCalmClear
5:15 AM37.4 °F37.4 °F100 %30.29 in10.0 miCalmClear
5:35 AM35.6 °F35.6 °F100 %30.29 in3.0 miCalmClear
5:55 AM37.4 °F37.4 °F100 %30.29 in7.0 miCalmClear
6:15 AM35.6 °F35.6 °F100 %30.29 in0.8 miCalmMist
6:35 AM35.6 °F35.6 °F100 %30.30 in0.2 miCalmFogFog
6:55 AM35.6 °F35.6 °F100 %30.30 in0.2 miCalmFogFog
7:15 AM35.6 °F35.6 °F100 %30.30 in1.2 miCalmClear
7:35 AM35.6 °F35.6 °F100 %30.30 in0.2 miCalmFogFog
7:55 AM35.6 °F35.6 °F100 %30.31 in2.5 miCalmClear
8:15 AM35.6 °F35.6 °F100 %30.31 in0.2 miCalmFogFog
8:35 AM37.4 °F37.4 °F100 %30.32 in10.0 miCalmClear
8:55 AM39.2 °F39.2 °F100 %30.32 in10.0 miCalmClear
9:15 AM41.0 °F41.0 °F100 %30.32 in10.0 miCalmClear
9:35 AM44.6 °F44.6 °F100 %30.31 in10.0 miCalmClear
9:55 AM46.4 °F46.4 °F100 %30.31 in10.0 miCalmClear
10:15 AM48.2 °F48.2 °F100 %30.32 in10.0 miCalmClear
10:35 AM50.0 °F48.2 °F94 %30.31 in10.0 miCalmClear
10:55 AM51.8 °F48.2 °F88 %30.31 in10.0 miCalmClear
11:15 AM55.4 °F48.2 °F77 %30.30 in10.0 miCalmClear
11:35 AM57.2 °F46.4 °F67 %30.29 in10.0 miSE (140°)4.6 mphClear
11:55 AM57.2 °F46.4 °F67 %30.28 in10.0 miSE (140°)5.8 mphClear
12:15 PM59.0 °F46.4 °F63 %30.27 in10.0 miSE (140°)4.6 mphClear
12:35 PM59.0 °F46.4 °F63 %30.27 in10.0 miSE (130°)5.8 mphClear
12:55 PM60.8 °F44.6 °F55 %30.25 in10.0 miSE (130°)6.9 mphClear
1:15 PM60.8 °F44.6 °F55 %30.25 in10.0 miSE (130°)5.8 mphClear
1:35 PM62.6 °F46.4 °F55 %30.24 in10.0 miSE (130°)5.8 mphClear
1:55 PM62.6 °F46.4 °F55 %30.23 in10.0 miSE (140°)5.8 mphClear
2:15 PM62.6 °F46.4 °F55 %30.23 in10.0 miSE (130°)4.6 mphClear
2:35 PM62.6 °F46.4 °F55 %30.22 in10.0 miSE (130°)4.6 mphClear
2:55 PM62.6 °F46.4 °F55 %30.22 in10.0 miESE (110°)4.6 mphClear
3:15 PM62.6 °F46.4 °F55 %30.22 in10.0 miSE (140°)3.5 mphClear
3:35 PM62.6 °F46.4 °F55 %30.21 in10.0 miCalmClear
3:55 PM64.4 °F46.4 °F52 %30.21 in10.0 miSE (140°)3.5 mphClear
4:15 PM62.6 °F46.4 °F55 %30.21 in10.0 miSE (130°)3.5 mphClear
4:35 PM62.6 °F46.4 °F55 %30.20 in10.0 miSE (140°)4.6 mphClear
4:55 PM62.6 °F48.2 °F59 %30.20 in10.0 miSSE (160°)3.5 mphClear
5:15 PM59.0 °F48.2 °F67 %30.20 in10.0 miSSE (160°)3.5 mphClear
5:35 PM55.4 °F48.2 °F77 %30.20 in10.0 miCalmClear
5:55 PM53.6 °F48.2 °F82 %30.20 in10.0 miCalmClear
6:15 PM51.8 °F48.2 °F88 %30.20 in10.0 miSSW (210°)3.5 mphClear
6:35 PM50.0 °F48.2 °F94 %30.20 in10.0 miSSW (200°)4.6 mphClear
6:55 PM50.0 °F48.2 °F94 %30.21 in10.0 miCalmClear
7:15 PM48.2 °F48.2 °F100 %30.21 in10.0 miCalmClear
7:35 PM48.2 °F48.2 °F100 %30.21 in10.0 miCalmClear
7:55 PM44.6 °F44.6 °F100 %30.21 in9.0 miCalmClear
8:15 PM46.4 °F46.4 °F100 %30.21 in10.0 miCalmClear
8:35 PM46.4 °F46.4 °F100 %30.21 in9.0 miCalmClear
8:55 PM44.6 °F44.6 °F100 %30.21 in1.2 miCalmClear
9:15 PM41.0 °F41.0 °F100 %30.21 in1.0 miCalmClear
9:35 PM42.8 °F42.8 °F100 %30.21 in7.0 miCalm
9:55 PM42.8 °F42.8 °F100 %30.21 in8.0 miCalm
10:15 PM41.0 °F41.0 °F100 %30.21 in8.0 miSouth (190°)3.5 mph
10:35 PM41.0 °F41.0 °F100 %30.21 in4.0 miCalmMist
10:55 PM41.0 °F41.0 °F100 %30.21 in6.0 miSSW (200°)3.5 mphMist
11:15 PM39.2 °F39.2 °F100 %30.21 in2.0 miCalmMist
11:35 PM39.2 °F39.2 °F100 %30.21 in0.2 miCalmFogFog
11:55 PM39.2 °F39.2 °F100 %30.21 in0.2 miCalmFogFog
Hourly data recorded from KDVO, located miles away from Lucas Valley-Marinwood, California







STORIES FROM OUR PARTNERS